| time (UTC) | temp F | wind direction | speed MPH | gust MPH | rain 1hr in | rain 24hr in | rain mn in | humidity % | barometer mb |
| 20260906234606 | 80 | 242 | 3.0 | 6.0 | 0.00 | 0.00 | 0.00 | 33 | 1003.0 |
| 20260906234105 | 80 | 222 | 2.0 | 8.0 | 0.00 | 0.00 | 0.00 | 34 | 1003.0 |
| 20260906232605 | 80 | 232 | 3.0 | 7.0 | 0.00 | 0.00 | 0.00 | 35 | 1003.0 |
| 20260906232106 | 80 | 228 | 2.0 | 7.0 | 0.00 | 0.00 | 0.00 | 35 | 1003.0 |
| 20260906231605 | 80 | 248 | 3.0 | 9.0 | 0.00 | 0.00 | 0.00 | 36 | 1003.4 |
| 20260906230605 | 80 | 231 | 3.0 | 10.0 | 0.00 | 0.00 | 0.00 | 36 | 1003.4 |
| 20260906230105 | 80 | 246 | 4.0 | 8.0 | 0.00 | 0.00 | 0.00 | 36 | 1003.4 |
| 20260906225106 | 80 | 242 | 3.0 | 8.0 | 0.00 | 0.00 | 0.00 | 36 | 1003.1 |
| 20260906224606 | 80 | 229 | 5.0 | 10.0 | 0.00 | 0.00 | 0.00 | 36 | 1003.4 |
| 20260906224105 | 81 | 206 | 3.0 | 8.0 | 0.00 | 0.00 | 0.00 | 37 | 1003.4 |
| 20260906223605 | 80 | 234 | 3.0 | 10.0 | 0.00 | 0.00 | 0.00 | 37 | 1003.4 |
| 20260906223105 | 80 | 233 | 3.0 | 10.0 | 0.00 | 0.00 | 0.00 | 38 | 1003.4 |
| 20260906222106 | 80 | 228 | 2.0 | 7.0 | 0.00 | 0.00 | 0.00 | 38 | 1003.7 |
| 20260906220606 | 79 | 203 | 3.0 | 8.0 | 0.00 | 0.00 | 0.00 | 40 | 1003.7 |
| 20260906220106 | 78 | 169 | 3.0 | 8.0 | 0.00 | 0.00 | 0.00 | 41 | 1003.7 |
| 20260906215606 | 78 | 260 | 3.0 | 8.0 | 0.00 | 0.00 | 0.00 | 42 | 1004.0 |
| 20260906215106 | 77 | 247 | 4.0 | 10.0 | 0.00 | 0.00 | 0.00 | 43 | 1004.1 |
| 20260906214605 | 76 | 248 | 5.0 | 9.0 | 0.00 | 0.00 | 0.00 | 45 | 1003.7 |
| 20260906214105 | 76 | 263 | 3.0 | 10.0 | 0.00 | 0.00 | 0.00 | 44 | 1004.1 |
| 20260906213605 | 75 | 278 | 5.0 | 8.0 | 0.00 | 0.00 | 0.00 | 44 | 1004.0 |
| 20260906213105 | 75 | 273 | 4.0 | 12.0 | 0.00 | 0.00 | 0.00 | 44 | 1003.7 |
| 20260906212605 | 76 | 271 | 5.0 | 9.0 | 0.00 | 0.00 | 0.00 | 41 | 1004.1 |
| 20260906212105 | 78 | 271 | 4.0 | 8.0 | 0.00 | 0.00 | 0.00 | 38 | 1004.1 |
| 20260906211605 | 79 | 264 | 3.0 | 8.0 | 0.00 | 0.00 | 0.00 | 37 | 1004.1 |
| 20260906211105 | 79 | 304 | 4.0 | 8.0 | 0.00 | 0.00 | 0.00 | 37 | 1004.1 |
| 20260906210605 | 79 | 272 | 3.0 | 7.0 | 0.00 | 0.00 | 0.00 | 37 | 1004.1 |
| 20260906210105 | 79 | 281 | 4.0 | 10.0 | 0.00 | 0.00 | 0.00 | 37 | 1004.1 |
| 20260906205605 | 78 | 282 | 3.0 | 7.0 | 0.00 | 0.00 | 0.00 | 38 | 1004.1 |
| 20260906205105 | 78 | 270 | 3.0 | 8.0 | 0.00 | 0.00 | 0.00 | 38 | 1004.1 |
| 20260906204105 | 78 | 264 | 3.0 | 8.0 | 0.00 | 0.00 | 0.00 | 39 | 1004.1 |
| 20260906203606 | 78 | 286 | 3.0 | 8.0 | 0.00 | 0.00 | 0.00 | 39 | 1004.1 |
| 20260906203105 | 78 | 290 | 3.0 | 6.0 | 0.00 | 0.00 | 0.00 | 40 | 1004.1 |
| 20260906202605 | 77 | 266 | 3.0 | 8.0 | 0.00 | 0.00 | 0.00 | 41 | 1004.1 |
| 20260906202106 | 77 | 261 | 4.0 | 12.0 | 0.00 | 0.00 | 0.00 | 41 | 1004.4 |
| 20260906201605 | 77 | 288 | 3.0 | 8.0 | 0.00 | 0.00 | 0.00 | 40 | 1004.1 |
| 20260906201106 | 77 | 258 | 3.0 | 8.0 | 0.00 | 0.00 | 0.00 | 41 | 1004.1 |
| 20260906200606 | 76 | 267 | 3.0 | 6.0 | 0.00 | 0.00 | 0.00 | 41 | 1004.1 |
| 20260906200104 | 76 | 259 | 3.0 | 7.0 | 0.00 | 0.00 | 0.00 | 42 | 1004.4 |
| 20260906195606 | 76 | 270 | 2.0 | 8.0 | 0.00 | 0.00 | 0.00 | 42 | 1004.4 |
| 20260906194605 | 75 | 268 | 4.0 | 8.0 | 0.00 | 0.00 | 0.00 | 45 | 1004.4 |
| 20260906194104 | 75 | 241 | 4.0 | 8.0 | 0.00 | 0.00 | 0.00 | 45 | 1004.4 |
| 20260906193605 | 75 | 282 | 3.0 | 7.0 | 0.00 | 0.00 | 0.00 | 46 | 1004.7 |
| 20260906193105 | 75 | 237 | 4.0 | 8.0 | 0.00 | 0.00 | 0.00 | 47 | 1004.7 |
| 20260906191604 | 73 | 246 | 3.0 | 7.0 | 0.00 | 0.00 | 0.00 | 49 | 1005.1 |
| 20260906191104 | 73 | 259 | 3.0 | 7.0 | 0.00 | 0.00 | 0.00 | 51 | 1005.1 |
| 20260906185606 | 73 | 282 | 3.0 | 8.0 | 0.00 | 0.00 | 0.00 | 53 | 1005.1 |
| 20260906185105 | 73 | 255 | 4.0 | 9.0 | 0.00 | 0.00 | 0.00 | 55 | 1005.1 |
| 20260906184605 | 72 | 308 | 2.0 | 6.0 | 0.00 | 0.00 | 0.00 | 56 | 1005.1 |
| 20260906184104 | 71 | 220 | 3.0 | 10.0 | 0.00 | 0.00 | 0.00 | 56 | 1005.1 |
| 20260906182605 | 71 | 274 | 4.0 | 8.0 | 0.00 | 0.00 | 0.00 | 58 | 1005.1 |
| 20260906181604 | 70 | 250 | 5.0 | 8.0 | 0.00 | 0.00 | 0.00 | 59 | 1005.1 |
| 20260906181105 | 70 | 246 | 5.0 | 10.0 | 0.00 | 0.00 | 0.00 | 59 | 1005.1 |
| 20260906180604 | 70 | 245 | 7.0 | 14.0 | 0.00 | 0.00 | 0.00 | 59 | 1005.1 |
| 20260906180106 | 70 | 260 | 4.0 | 10.0 | 0.00 | 0.00 | 0.00 | 58 | 1005.1 |
| 20260906175605 | 71 | 239 | 3.0 | 9.0 | 0.00 | 0.00 | 0.00 | 58 | 1005.1 |
| 20260906175105 | 71 | 242 | 2.0 | 6.0 | 0.00 | 0.00 | 0.00 | 58 | 1005.1 |
| 20260906174605 | 70 | 158 | 2.0 | 7.0 | 0.00 | 0.00 | 0.00 | 58 | 1005.1 |
| 20260906173606 | 70 | 133 | 2.0 | 7.0 | 0.00 | 0.00 | 0.00 | 59 | 1005.1 |
| 20260906172105 | 69 | 118 | 2.0 | 6.0 | 0.00 | 0.00 | 0.00 | 62 | 1005.1 |
| 20260906171604 | 68 | 114 | 2.0 | 7.0 | 0.00 | 0.00 | 0.00 | 62 | 1005.1 |
| 20260906171106 | 68 | 112 | 2.0 | 7.0 | 0.00 | 0.00 | 0.00 | 63 | 1005.1 |
| 20260906170605 | 68 | 149 | 3.0 | 8.0 | 0.00 | 0.00 | 0.00 | 64 | 1005.1 |
| 20260906170106 | 67 | 156 | 2.0 | 6.0 | 0.00 | 0.00 | 0.00 | 65 | 1005.1 |
| 20260906165604 | 67 | 155 | 2.0 | 7.0 | 0.00 | 0.00 | 0.00 | 66 | 1005.1 |
| 20260906165104 | 67 | 176 | 2.0 | 6.0 | 0.00 | 0.00 | 0.00 | 66 | 1005.1 |
| 20260906164604 | 67 | 219 | 2.0 | 6.0 | 0.00 | 0.00 | 0.00 | 66 | 1005.1 |
| 20260906163605 | 66 | 121 | 1.0 | 6.0 | 0.00 | 0.00 | 0.00 | 68 | 1005.1 |
| 20260906163105 | 65 | 169 | 1.0 | 6.0 | 0.00 | 0.00 | 0.00 | 69 | 1005.1 |
| 20260906162605 | 65 | 111 | 1.0 | 6.0 | 0.00 | 0.00 | 0.00 | 70 | 1005.1 |
| 20260906162105 | 64 | 162 | 3.0 | 8.0 | 0.00 | 0.00 | 0.00 | 71 | 1005.4 |
| 20260906161605 | 64 | 130 | 2.0 | 10.0 | 0.00 | 0.00 | 0.00 | 72 | 1005.4 |
| 20260906161104 | 64 | 185 | 3.0 | 10.0 | 0.00 | 0.00 | 0.00 | 72 | 1005.4 |
| 20260906160107 | 64 | 209 | 2.0 | 8.0 | 0.00 | 0.00 | 0.00 | 73 | 1005.4 |
| 20260906155604 | 64 | 170 | 1.0 | 12.0 | 0.00 | 0.00 | 0.00 | 74 | 1005.4 |
| 20260906155104 | 63 | 168 | 2.0 | 6.0 | 0.00 | 0.00 | 0.00 | 75 | 1005.4 |
| 20260906154604 | 63 | 157 | 1.0 | 6.0 | 0.00 | 0.00 | 0.00 | 76 | 1005.4 |
| 20260906154105 | 62 | 138 | 1.0 | 6.0 | 0.00 | 0.00 | 0.00 | 77 | 1005.4 |
| 20260906153605 | 61 | 157 | 2.0 | 8.0 | 0.00 | 0.00 | 0.00 | 78 | 1005.4 |
| 20260906153105 | 61 | 135 | 3.0 | 12.0 | 0.00 | 0.00 | 0.00 | 79 | 1005.4 |
| 20260906152605 | 60 | 155 | 2.0 | 7.0 | 0.00 | 0.00 | 0.00 | 80 | 1005.4 |
| 20260906152104 | 60 | 126 | 2.0 | 12.0 | 0.00 | 0.00 | 0.00 | 81 | 1005.4 |
| 20260906151604 | 60 | 141 | 2.0 | 8.0 | 0.00 | 0.00 | 0.00 | 81 | 1005.4 |
| 20260906151105 | 60 | 145 | 3.0 | 8.0 | 0.00 | 0.00 | 0.00 | 82 | 1005.8 |
| 20260906150605 | 59 | 154 | 2.0 | 8.0 | 0.00 | 0.00 | 0.00 | 83 | 1005.8 |
| 20260906145605 | 59 | 143 | 2.0 | 7.0 | 0.00 | 0.00 | 0.00 | 84 | 1005.8 |
| 20260906145105 | 58 | 168 | 2.0 | 5.0 | 0.00 | 0.00 | 0.00 | 85 | 1005.8 |
| 20260906144605 | 58 | 148 | 3.0 | 12.0 | 0.00 | 0.00 | 0.00 | 85 | 1005.4 |
| 20260906144104 | 58 | 163 | 2.0 | 8.0 | 0.00 | 0.00 | 0.00 | 85 | 1005.7 |
| 20260906143605 | 58 | 130 | 3.0 | 8.0 | 0.00 | 0.00 | 0.00 | 86 | 1005.4 |
| 20260906143105 | 58 | 156 | 3.0 | 7.0 | 0.00 | 0.00 | 0.00 | 86 | 1005.4 |
| 20260906142605 | 57 | 157 | 2.0 | 7.0 | 0.00 | 0.00 | 0.00 | 86 | 1005.4 |
| 20260906141105 | 57 | 134 | 1.0 | 3.0 | 0.00 | 0.00 | 0.00 | 86 | 1005.1 |
| 20260906140605 | 57 | 123 | 3.0 | 8.0 | 0.00 | 0.00 | 0.00 | 86 | 1005.1 |
| 20260906140105 | 57 | 157 | 2.0 | 6.0 | 0.00 | 0.00 | 0.00 | 86 | 1005.1 |
| 20260906135604 | 57 | 143 | 2.0 | 6.0 | 0.00 | 0.00 | 0.00 | 86 | 1005.1 |
| 20260906135105 | 57 | 132 | 2.0 | 7.0 | 0.00 | 0.00 | 0.00 | 86 | 1005.1 |
| 20260906134105 | 57 | 122 | 3.0 | 7.0 | 0.00 | 0.00 | 0.00 | 86 | 1005.1 |
| 20260906133604 | 57 | 141 | 2.0 | 6.0 | 0.00 | 0.00 | 0.00 | 86 | 1005.1 |
| 20260906133104 | 57 | 125 | 2.0 | 6.0 | 0.00 | 0.00 | 0.00 | 86 | 1005.0 |
| 20260906132605 | 57 | 146 | 2.0 | 5.0 | 0.00 | 0.00 | 0.00 | 86 | 1004.8 |
| 20260906132104 | 57 | 125 | 2.0 | 5.0 | 0.00 | 0.00 | 0.00 | 86 | 1004.8 |
| 20260906131605 | 58 | 132 | 2.0 | 5.0 | 0.00 | 0.00 | 0.00 | 86 | 1004.8 |
| 20260906131104 | 57 | 124 | 2.0 | 7.0 | 0.00 | 0.00 | 0.00 | 86 | 1004.7 |
| 20260906130605 | 57 | 122 | 2.0 | 5.0 | 0.00 | 0.00 | 0.00 | 86 | 1004.7 |
| 20260906130104 | 58 | 137 | 2.0 | 5.0 | 0.00 | 0.00 | 0.00 | 86 | 1004.7 |
| 20260906125604 | 58 | 135 | 2.0 | 6.0 | 0.00 | 0.00 | 0.00 | 86 | 1004.7 |
| 20260906125105 | 58 | 119 | 2.0 | 5.0 | 0.00 | 0.00 | 0.00 | 86 | 1004.7 |
| 20260906124605 | 58 | 136 | 2.0 | 6.0 | 0.00 | 0.00 | 0.00 | 86 | 1004.7 |
| 20260906124104 | 58 | 133 | 2.0 | 6.0 | 0.00 | 0.00 | 0.00 | 86 | 1004.7 |
| 20260906123605 | 58 | 126 | 3.0 | 6.0 | 0.00 | 0.00 | 0.00 | 86 | 1004.7 |
| 20260906123104 | 58 | 139 | 2.0 | 6.0 | 0.00 | 0.00 | 0.00 | 86 | 1004.5 |
| 20260906122605 | 58 | 162 | 2.0 | 6.0 | 0.00 | 0.00 | 0.00 | 86 | 1004.7 |
| 20260906122104 | 58 | 161 | 3.0 | 8.0 | 0.00 | 0.00 | 0.00 | 86 | 1004.7 |
| 20260906120604 | 58 | 131 | 2.0 | 9.0 | 0.00 | 0.00 | 0.00 | 86 | 1004.7 |
| 20260906120104 | 58 | 145 | 4.0 | 8.0 | 0.00 | 0.00 | 0.00 | 85 | 1004.7 |
| 20260906115105 | 58 | 169 | 2.0 | 7.0 | 0.00 | 0.00 | 0.00 | 85 | 1004.7 |
| 20260906114605 | 58 | 147 | 2.0 | 5.0 | 0.00 | 0.00 | 0.00 | 85 | 1004.7 |
| 20260906113604 | 58 | 152 | 2.0 | 8.0 | 0.00 | 0.00 | 0.00 | 86 | 1004.7 |
| 20260906113104 | 58 | 124 | 2.0 | 6.0 | 0.00 | 0.00 | 0.00 | 86 | 1004.7 |
| 20260906112604 | 58 | 135 | 2.0 | 5.0 | 0.00 | 0.00 | 0.00 | 86 | 1004.4 |
| 20260906111604 | 58 | 136 | 3.0 | 7.0 | 0.00 | 0.00 | 0.00 | 86 | 1004.7 |
| 20260906111105 | 58 | 145 | 2.0 | 6.0 | 0.00 | 0.00 | 0.00 | 86 | 1004.7 |
| 20260906110106 | 59 | 140 | 2.0 | 5.0 | 0.00 | 0.00 | 0.00 | 86 | 1004.4 |
| 20260906105605 | 59 | 189 | 3.0 | 8.0 | 0.00 | 0.00 | 0.00 | 86 | 1004.7 |
| 20260906105104 | 59 | 136 | 2.0 | 9.0 | 0.00 | 0.00 | 0.00 | 86 | 1004.4 |
| 20260906104605 | 59 | 126 | 2.0 | 5.0 | 0.00 | 0.00 | 0.00 | 86 | 1004.4 |
| 20260906103604 | 59 | 120 | 2.0 | 5.0 | 0.00 | 0.00 | 0.00 | 86 | 1004.4 |
| 20260906103104 | 59 | 146 | 1.0 | 3.0 | 0.00 | 0.00 | 0.00 | 86 | 1004.7 |
| 20260906102605 | 59 | 148 | 2.0 | 3.0 | 0.00 | 0.00 | 0.00 | 86 | 1004.7 |
| 20260906102104 | 59 | 137 | 1.0 | 5.0 | 0.00 | 0.00 | 0.00 | 86 | 1004.4 |
| 20260906101604 | 59 | 93 | 2.0 | 5.0 | 0.00 | 0.00 | 0.00 | 85 | 1004.4 |
| 20260906101104 | 59 | 127 | 2.0 | 5.0 | 0.00 | 0.00 | 0.00 | 85 | 1004.4 |
| 20260906100604 | 59 | 141 | 2.0 | 6.0 | 0.00 | 0.00 | 0.00 | 85 | 1004.4 |
| 20260906100104 | 59 | 145 | 2.0 | 7.0 | 0.00 | 0.00 | 0.00 | 85 | 1004.3 |
| 20260906095104 | 60 | 135 | 2.0 | 5.0 | 0.00 | 0.00 | 0.00 | 84 | 1004.1 |
| 20260906094605 | 60 | 158 | 2.0 | 6.0 | 0.00 | 0.00 | 0.00 | 84 | 1004.1 |
| 20260906094104 | 60 | 135 | 1.0 | 7.0 | 0.00 | 0.00 | 0.00 | 83 | 1004.1 |
| 20260906093605 | 60 | 143 | 2.0 | 6.0 | 0.00 | 0.00 | 0.00 | 83 | 1004.4 |
| 20260906093104 | 60 | 135 | 1.0 | 6.0 | 0.00 | 0.00 | 0.00 | 83 | 1004.3 |
| 20260906092604 | 60 | 125 | 1.0 | 5.0 | 0.00 | 0.00 | 0.00 | 83 | 1004.4 |
| 20260906092105 | 60 | 137 | 2.0 | 6.0 | 0.00 | 0.00 | 0.00 | 82 | 1004.4 |
| 20260906091604 | 60 | 151 | 1.0 | 5.0 | 0.00 | 0.00 | 0.00 | 82 | 1004.4 |
| 20260906091105 | 60 | 157 | 2.0 | 6.0 | 0.00 | 0.00 | 0.00 | 82 | 1004.4 |
| 20260906090604 | 60 | 135 | 2.0 | 5.0 | 0.00 | 0.00 | 0.00 | 82 | 1004.4 |
| 20260906090104 | 60 | 157 | 1.0 | 6.0 | 0.00 | 0.00 | 0.00 | 81 | 1004.4 |
| 20260906085604 | 60 | 143 | 2.0 | 5.0 | 0.00 | 0.00 | 0.00 | 81 | 1004.4 |
| 20260906085105 | 60 | 138 | 1.0 | 2.0 | 0.00 | 0.00 | 0.00 | 80 | 1004.4 |
| 20260906084604 | 61 | 124 | 1.0 | 3.0 | 0.00 | 0.00 | 0.00 | 80 | 1004.4 |
| 20260906084106 | 61 | 117 | 2.0 | 6.0 | 0.00 | 0.00 | 0.00 | 80 | 1004.4 |
| 20260906083604 | 61 | 165 | 1.0 | 3.0 | 0.00 | 0.00 | 0.00 | 79 | 1004.4 |
| 20260906083104 | 61 | 137 | 2.0 | 5.0 | 0.00 | 0.00 | 0.00 | 79 | 1004.4 |
| 20260906082604 | 61 | 118 | 2.0 | 3.0 | 0.00 | 0.00 | 0.00 | 79 | 1004.4 |
| 20260906082104 | 61 | 153 | 1.0 | 6.0 | 0.00 | 0.00 | 0.00 | 79 | 1004.4 |
| 20260906081604 | 61 | 114 | 2.0 | 3.0 | 0.00 | 0.00 | 0.00 | 79 | 1004.4 |
| 20260906081104 | 60 | 146 | 2.0 | 5.0 | 0.00 | 0.00 | 0.00 | 79 | 1004.4 |
| 20260906080603 | 60 | 135 | 1.0 | 5.0 | 0.00 | 0.00 | 0.00 | 79 | 1004.4 |
| 20260906080104 | 60 | 135 | 1.0 | 2.0 | 0.00 | 0.00 | 0.00 | 79 | 1004.4 |
| 20260906075604 | 60 | 135 | 1.0 | 3.0 | 0.00 | 0.00 | 0.00 | 79 | 1004.4 |
| 20260906075103 | 61 | 128 | 1.0 | 2.0 | 0.00 | 0.00 | 0.00 | 79 | 1004.4 |
| 20260906074604 | 61 | 138 | 1.0 | 3.0 | 0.00 | 0.00 | 0.00 | 79 | 1004.4 |
| 20260906074104 | 60 | 140 | 1.0 | 3.0 | 0.00 | 0.00 | 0.00 | 79 | 1004.4 |
| 20260906073605 | 60 | 135 | 1.0 | 3.0 | 0.00 | 0.00 | 0.00 | 79 | 1004.4 |
| 20260906073104 | 61 | 135 | 1.0 | 2.0 | 0.00 | 0.00 | 0.00 | 78 | 1004.4 |
| 20260906072604 | 61 | 135 | 0.0 | 1.0 | 0.00 | 0.00 | 0.00 | 78 | 1004.7 |
| 20260906072104 | 61 | 135 | 0.0 | 1.0 | 0.00 | 0.00 | 0.00 | 78 | 1004.4 |
| 20260906071604 | 61 | 112 | 0.0 | 1.0 | 0.00 | 0.00 | 0.00 | 78 | 1004.4 |
| 20260906071105 | 61 | 152 | 1.0 | 2.0 | 0.00 | 0.00 | 0.00 | 77 | 1004.4 |
| 20260906070103 | 61 | 136 | 1.0 | 2.0 | 0.00 | 0.00 | 0.00 | 76 | 1004.4 |
| 20260906065605 | 62 | 157 | 1.0 | 3.0 | 0.00 | 0.00 | 0.00 | 76 | 1004.7 |
| 20260906065105 | 62 | 125 | 1.0 | 5.0 | 0.00 | 0.00 | 0.00 | 75 | 1004.7 |
| 20260906064605 | 62 | 147 | 2.0 | 3.0 | 0.00 | 0.00 | 0.00 | 75 | 1004.7 |
| 20260906064104 | 62 | 143 | 1.0 | 3.0 | 0.00 | 0.00 | 0.00 | 74 | 1004.7 |
| 20260906063605 | 62 | 135 | 0.0 | 2.0 | 0.00 | 0.00 | 0.00 | 74 | 1004.7 |
| 20260906063103 | 62 | 135 | 1.0 | 3.0 | 0.00 | 0.00 | 0.00 | 74 | 1004.7 |
| 20260906062603 | 62 | 136 | 2.0 | 3.0 | 0.00 | 0.00 | 0.00 | 74 | 1004.7 |
| 20260906061604 | 62 | 135 | 1.0 | 2.0 | 0.00 | 0.00 | 0.00 | 72 | 1004.7 |
| 20260906061104 | 62 | 180 | 1.0 | 5.0 | 0.00 | 0.00 | 0.00 | 71 | 1004.7 |
| 20260906060604 | 62 | 157 | 0.0 | 3.0 | 0.00 | 0.00 | 0.00 | 71 | 1004.7 |
| 20260906060104 | 62 | 157 | 0.0 | 2.0 | 0.00 | 0.00 | 0.00 | 71 | 1004.7 |
| 20260906055603 | 62 | 157 | 1.0 | 2.0 | 0.00 | 0.00 | 0.00 | 70 | 1004.7 |
| 20260906055104 | 62 | 157 | 1.0 | 3.0 | 0.00 | 0.00 | 0.00 | 70 | 1005.1 |
| 20260906054605 | 62 | 180 | 0.0 | 5.0 | 0.00 | 0.00 | 0.00 | 70 | 1005.1 |
| 20260906054105 | 61 | 135 | 0.0 | 1.0 | 0.00 | 0.00 | 0.00 | 70 | 1005.1 |
| 20260906053605 | 61 | 157 | 0.0 | 2.0 | 0.00 | 0.00 | 0.00 | 70 | 1005.1 |
| 20260906053105 | 61 | 180 | 0.0 | 1.0 | 0.00 | 0.00 | 0.00 | 69 | 1005.1 |
| 20260906052606 | 62 | 132 | 0.0 | 1.0 | 0.00 | 0.00 | 0.00 | 69 | 1005.1 |
| 20260906051605 | 62 | 90 | 0.0 | 2.0 | 0.00 | 0.00 | 0.00 | 69 | 1005.1 |
| 20260906051105 | 62 | 90 | 1.0 | 2.0 | 0.00 | 0.00 | 0.00 | 68 | 1005.1 |
| 20260906050605 | 62 | 135 | 0.0 | 0.0 | 0.00 | 0.00 | 0.00 | 68 | 1005.1 |
| 20260906050105 | 62 | 135 | 0.0 | 2.0 | 0.00 | 0.00 | 0.00 | 69 | 1005.1 |
| 20260906045606 | 62 | 133 | 1.0 | 2.0 | 0.00 | 0.00 | 0.00 | 68 | 1005.1 |
| 20260906045105 | 62 | 90 | 0.0 | 2.0 | 0.00 | 0.00 | 0.00 | 68 | 1005.2 |
| 20260906044605 | 62 | 112 | 0.0 | 2.0 | 0.00 | 0.00 | 0.00 | 67 | 1005.1 |
| 20260906044106 | 62 | 112 | 0.0 | 1.0 | 0.00 | 0.00 | 0.00 | 67 | 1005.1 |
| 20260906042605 | 63 | 162 | 1.0 | 5.0 | 0.00 | 0.00 | 0.00 | 67 | 1005.1 |
| 20260906042105 | 63 | 202 | 2.0 | 5.0 | 0.00 | 0.00 | 0.00 | 67 | 1005.1 |
| 20260906041605 | 64 | 238 | 2.0 | 6.0 | 0.00 | 0.00 | 0.00 | 67 | 1005.1 |
| 20260906041105 | 64 | 245 | 1.0 | 8.0 | 0.00 | 0.00 | 0.00 | 67 | 1005.1 |
| 20260906040605 | 64 | 238 | 3.0 | 6.0 | 0.00 | 0.00 | 0.00 | 67 | 1005.1 |
| 20260906040106 | 64 | 245 | 5.0 | 7.0 | 0.00 | 0.00 | 0.00 | 67 | 1005.1 |
| 20260906035605 | 64 | 229 | 6.0 | 9.0 | 0.00 | 0.00 | 0.00 | 67 | 1005.1 |
| 20260906035105 | 65 | 238 | 5.0 | 10.0 | 0.00 | 0.00 | 0.00 | 66 | 1005.0 |
| 20260906034605 | 65 | 239 | 2.0 | 7.0 | 0.00 | 0.00 | 0.00 | 66 | 1004.7 |
| 20260906034105 | 65 | 247 | 2.0 | 6.0 | 0.00 | 0.00 | 0.00 | 66 | 1004.7 |
| 20260906033605 | 65 | 272 | 2.0 | 3.0 | 0.00 | 0.00 | 0.00 | 65 | 1004.7 |
| 20260906033105 | 65 | 281 | 3.0 | 6.0 | 0.00 | 0.00 | 0.00 | 64 | 1004.5 |
| 20260906032604 | 65 | 236 | 2.0 | 6.0 | 0.00 | 0.00 | 0.00 | 64 | 1004.4 |
| 20260906032106 | 66 | 247 | 2.0 | 3.0 | 0.00 | 0.00 | 0.00 | 63 | 1004.4 |
| 20260906031605 | 66 | 258 | 1.0 | 5.0 | 0.00 | 0.00 | 0.00 | 63 | 1004.4 |
| 20260906031104 | 66 | 277 | 2.0 | 5.0 | 0.00 | 0.00 | 0.00 | 62 | 1004.3 |
| 20260906030605 | 67 | 278 | 2.0 | 6.0 | 0.00 | 0.00 | 0.00 | 61 | 1004.1 |
| 20260906030105 | 67 | 277 | 2.0 | 5.0 | 0.00 | 0.00 | 0.00 | 60 | 1004.4 |
| 20260906025607 | 67 | 260 | 2.0 | 3.0 | 0.00 | 0.00 | 0.00 | 59 | 1004.1 |
| 20260906024605 | 68 | 245 | 3.0 | 8.0 | 0.00 | 0.00 | 0.00 | 58 | 1004.1 |
| 20260906024106 | 68 | 230 | 3.0 | 10.0 | 0.00 | 0.00 | 0.00 | 57 | 1004.1 |
| 20260906023605 | 69 | 245 | 3.0 | 8.0 | 0.00 | 0.00 | 0.00 | 56 | 1004.1 |
| 20260906023105 | 69 | 239 | 3.0 | 8.0 | 0.00 | 0.00 | 0.00 | 54 | 1004.1 |
| 20260906022605 | 70 | 257 | 3.0 | 6.0 | 0.00 | 0.00 | 0.00 | 53 | 1004.1 |
| 20260906021604 | 71 | 266 | 3.0 | 9.0 | 0.00 | 0.00 | 0.00 | 51 | 1004.0 |
| 20260906021106 | 71 | 279 | 3.0 | 7.0 | 0.00 | 0.00 | 0.00 | 50 | 1004.1 |
| 20260906020605 | 71 | 290 | 3.0 | 8.0 | 0.00 | 0.00 | 0.00 | 50 | 1004.1 |
| 20260906020105 | 72 | 249 | 3.0 | 10.0 | 0.00 | 0.00 | 0.00 | 50 | 1004.1 |
| 20260906015605 | 72 | 264 | 2.0 | 6.0 | 0.00 | 0.00 | 0.00 | 49 | 1004.1 |
| 20260906015106 | 72 | 238 | 3.0 | 7.0 | 0.00 | 0.00 | 0.00 | 49 | 1004.1 |
| 20260906014605 | 72 | 252 | 2.0 | 5.0 | 0.00 | 0.00 | 0.00 | 49 | 1004.1 |
| 20260906014105 | 72 | 267 | 2.0 | 6.0 | 0.00 | 0.00 | 0.00 | 48 | 1003.8 |
| 20260906013105 | 73 | 294 | 2.0 | 5.0 | 0.00 | 0.00 | 0.00 | 47 | 1003.7 |
| 20260906012605 | 73 | 260 | 3.0 | 8.0 | 0.00 | 0.00 | 0.00 | 47 | 1003.9 |
| 20260906012105 | 74 | 276 | 2.0 | 5.0 | 0.00 | 0.00 | 0.00 | 46 | 1003.7 |
| 20260906011604 | 74 | 281 | 2.0 | 5.0 | 0.00 | 0.00 | 0.00 | 45 | 1003.8 |
| 20260906011104 | 75 | 263 | 3.0 | 7.0 | 0.00 | 0.00 | 0.00 | 44 | 1003.8 |
| 20260906010605 | 76 | 271 | 2.0 | 5.0 | 0.00 | 0.00 | 0.00 | 42 | 1003.7 |
| 20260906010106 | 77 | 241 | 2.0 | 7.0 | 0.00 | 0.00 | 0.00 | 40 | 1003.7 |
| 20260906005605 | 78 | 274 | 3.0 | 7.0 | 0.00 | 0.00 | 0.00 | 38 | 1003.7 |
| 20260906005106 | 78 | 270 | 2.0 | 7.0 | 0.00 | 0.00 | 0.00 | 38 | 1003.7 |
| 20260906004105 | 77 | 227 | 2.0 | 6.0 | 0.00 | 0.00 | 0.00 | 39 | 1003.7 |
| 20260906003605 | 77 | 242 | 3.0 | 6.0 | 0.00 | 0.00 | 0.00 | 39 | 1003.7 |
| 20260906003106 | 77 | 217 | 2.0 | 6.0 | 0.00 | 0.00 | 0.00 | 39 | 1003.7 |
| 20260906002605 | 77 | 260 | 3.0 | 6.0 | 0.00 | 0.00 | 0.00 | 39 | 1003.7 |
| 20260906001605 | 78 | 242 | 2.0 | 6.0 | 0.00 | 0.00 | 0.00 | 38 | 1003.4 |
| 20260906001104 | 78 | 276 | 2.0 | 5.0 | 0.00 | 0.00 | 0.00 | 38 | 1003.4 |
| 20260906000604 | 79 | 240 | 3.0 | 6.0 | 0.00 | 0.00 | 0.00 | 38 | 1003.4 |
| 20260906000104 | 80 | 238 | 4.0 | 8.0 | 0.00 | 0.00 | 0.00 | 38 | 1003.4 |
| 20260905235605 | 80 | 236 | 4.0 | 8.0 | 0.00 | 0.00 | 0.00 | 38 | 1003.4 |
| 20260905235105 | 80 | 243 | 4.0 | 7.0 | 0.00 | 0.00 | 0.00 | 38 | 1003.4 |